Flag for U.S.A. Weather past 2 weeks in Babylon, New York, U.S.A.

Now
70 °F

Fog.


Feels Like: 67 °F
Forecast: 71 / 83 °F
Wind: No wind

Location: Republic Airport

Current Time: Sep 2, 2015 at 5:44:08 AM

Latest Report: Sep 2, 2015 at 4:53 AM


Visibility: 6 mi

Pressure: 30.02 "Hg

Humidity: 90%

Dew point: 67 °F

Location of BabylonLocation

Historic Weather in Babylon — Graph

°F

Babylon temperature yesterday

Maximum temperature yesterday: 85 °F (at 11:53 AM)
Minimum temperature yesterday: 73 °F (at 5:53 AM)
Average temperature yesterday: 79 °F

Past Weeks' High & Low Weather Summary

 TemperatureHumidityPressure
High90 °F (Aug 31, 2:53 PM)94% (Aug 19, 2:53 AM)30.22 "Hg (Aug 19, 2:53 AM)
Low63 °F (Aug 29, 5:53 AM)34% (Aug 26, 1:53 PM)29.83 "Hg (Aug 25, 4:53 PM)
Average77 °F67%30.02 "Hg
* Reported Aug 18 3:53 AM — Sep 2 3:53 AM, Babylon, Weather by CustomWeather, © 2015

Note: Actual official high and low records may vary slightly from our data, if they occured in-between our weather recording intervals... More about our weather records

Advertising

Babylon weather history for previous 24 hours

 ConditionsComfort  
Time TempWeatherWind HumidityBarometerVisibility
3:53 AM
Wed, Sep 2
72 °FFog.No wind91%30.03 "Hg3 mi
2:53 AM72 °FFog.No wind91%30.04 "Hg6 mi
1:53 AM72 °FClear.No wind87%30.05 "Hg7 mi
12:53 AM73 °FClear.No wind88%30.06 "Hg8 mi
11:53 PM
Tue, Sep 1
73 °FClear.No wind88%30.06 "Hg9 mi
10:53 PM74 °FClear.3 mph82%30.06 "Hg10 mi
9:53 PM75 °FClear.5 mph76%30.06 "Hg10 mi
8:53 PM76 °FClear.3 mph72%30.05 "Hg10 mi
7:53 PM77 °FSunny.5 mph64%30.03 "Hg10 mi
6:53 PM79 °FSunny.7 mph56%30.02 "Hg10 mi
4:53 PM83 °FSunny.9 mph50%30.02 "Hg10 mi
3:53 PM83 °FPassing clouds.10 mph50%30.03 "Hg10 mi
2:53 PM85 °FSunny.12 mph48%30.04 "Hg10 mi
1:53 PM85 °FSunny.9 mph48%30.05 "Hg10 mi
12:53 PM83 °FScattered clouds.9 mph55%30.05 "Hg10 mi
11:53 AM85 °FSunny.6 mph46%30.05 "Hg10 mi
10:53 AM84 °FSunny.8 mph51%30.06 "Hg10 mi
9:53 AM81 °FSunny.9 mph58%30.05 "Hg10 mi
8:53 AM79 °FSunny.8 mph62%30.04 "Hg10 mi
7:53 AM76 °FSunny.10 mph72%30.03 "Hg10 mi
6:53 AM73 °FClear.5 mph79%30.02 "Hg8 mi
5:53 AM73 °FClear.No wind79%30.01 "Hg10 mi
Weather by CustomWeather, © 2015

See weather overviewHow to use our weather pages